QPF
0.00 0.00 0.00 0.00 0.00 0.00 0.00 0.00 0.00 0.00 0.00 0.00 0.00 0.00 0.00 0.00 0.00 0.00 0.00 0.00 0.00 0.00 0.00 0.00 0.00 0.00 0.00 0.00 0.00 0.00 0.00 0.00
0.00 0.00 0.00 0.00 0.00 0.00 0.00 0.00 0.00 0.00 0.00 0.00 0.00 0.00 0.00 0.00 0.00 0.00 0.00 0.00 0.00 0.00 0.00 0.00 0.00 0.00 0.00 0.00 0.00 0.00 0.00 0.00
0.00 0.00 0.00 0.00 0.00 0.00 0.00 0.00 0.00 0.00 0.00 0.00 0.00 0.00 0.00 0.00 0.00 0.00 0.00 0.00 0.00 0.00 0.00 0.00 0.00 0.00 0.00 0.00 0.00 0.00 0.00 0.00
0.00 0.00 0.00 0.00 0.00 0.00 0.00 0.00 0.00 0.00 0.00 0.00 0.00 0.00 0.00 0.00 0.00 0.00 0.00 0.00 0.00 0.00 0.00 0.00 0.00 0.00 0.00 0.00 0.00 0.00 0.00 0.00
0.00 0.00 0.00 0.00 0.00 0.00 0.00 0.00 0.00 0.00 0.00 0.00 0.00 0.00 0.00 0.00 0.00 0.00 0.00 0.00 0.00 0.00 0.00 0.00 0.00 0.00 0.00 0.00 0.00 0.00 0.00 0.00
0.00 0.00 0.00 0.00 0.00 0.00 0.00 0.00 0.00 0.00 0.00 0.00 0.00 0.00 0.00 0.00 0.00 0.00 0.00 0.00 0.00 0.00 0.00 0.00 0.00 0.00 0.00 0.00 0.00 0.00 0.00 0.00
0.00 0.00 0.00 0.00 0.00 0.00 0.00 0.00 0.00 0.00 0.00 0.00 0.00 0.00 0.00 0.00 0.00 0.00 0.00 0.00 0.00 0.00 0.00 0.00 0.00 0.00 0.00 0.00 0.00 0.00 0.00 0.00
0.00 0.00 0.00 0.00 0.00 0.00 0.00 0.00 0.00 0.00 0.00 0.00 0.00 0.00 0.00 0.00 0.00 0.00 0.00 0.00 0.00 0.00 0.00 0.00 0.00 0.00 0.00 0.00 0.00 0.00 0.00 0.00
0.00 0.00 0.00 0.00 0.00 0.00 0.00 0.00 0.00 0.00 0.00 0.00 0.00 0.00 0.00 0.00 0.00 0.00 0.00 0.00 0.00 0.00 0.00 0.00 0.00 0.00 0.00 0.00 0.00 0.00 0.00 0.00
0.00 0.00 0.00 0.00 0.00 0.00 0.00 0.00 0.00 0.00 0.00 0.00 0.00 0.00 0.00 0.00 0.00 0.00 0.00 0.00 0.00 0.00 0.00 0.00 0.00 0.00 0.00 0.00 0.00 0.00 0.00 0.00
0.00 0.00 0.00 0.00 0.00 0.00 0.00 0.00 0.00 0.00 0.00 0.00 0.00 0.00 0.00 0.00 0.00 0.00 0.00 0.00 0.00 0.00 0.00 0.00 0.00 0.00 0.00 0.00 0.00 0.00 0.00 0.00
0.00 0.00 0.00 0.00 0.00 0.00 0.00 0.00 0.00 0.00 0.00 0.00 0.00 0.00 0.00 0.00 0.00 0.00 0.00 0.00 0.00 0.00 0.00 0.00 0.00 0.00 0.00 0.00 0.00 0.00 0.00 0.00
0.00 0.00 0.00 0.00 0.00 0.00 0.00 0.00 0.00 0.00 0.00 0.00 0.00 0.00 0.00 0.00 0.00 0.00 0.00 0.00 0.00 0.00 0.00 0.00 0.00 0.00 0.00 0.00 0.00 0.00 0.00 0.00
0.00 0.00 0.00 0.00 0.00 0.00 0.00 0.00 0.00 0.00 0.00 0.00 0.00 0.00 0.00 0.00 0.00 0.00 0.00 0.00 0.00 0.00 0.00 0.00 0.00 0.00 0.00 0.00 0.00 0.00 0.00 0.00
0.00 0.00 0.00 0.00 0.00 0.00 0.00 0.00 0.00 0.00 0.00 0.00 0.00 0.00 0.00 0.00 0.00 0.00 0.00 0.00 0.00 0.00 0.00 0.00 0.00 0.00 0.00 0.00 0.00 0.00 0.00 0.00
0.00 0.00 0.00 0.00 0.00 0.00 0.00 0.00 0.00 0.00 0.00 0.00 0.00 0.00 0.00 0.00 0.00 0.00 0.00 0.00 0.00 0.00 0.00 0.00 0.00 0.00 0.00 0.00 0.00 0.01 0.02 0.01
0.00 0.00 0.00 0.00 0.00 0.00 0.00 0.00 0.00 0.00 0.00 0.00 0.00 0.00 0.00 0.00 0.00 0.00 0.00 0.00 0.00 0.00 0.00 0.00 0.00 0.00 0.00 0.00 0.00 0.00 0.01 0.02
0.00 0.00 0.00 0.00 0.00 0.00 0.00 0.00 0.00 0.00 0.00 0.00 0.00 0.00 0.00 0.00 0.00 0.00 0.00 0.00 0.00 0.00 0.00 0.00 0.00 0.00 0.00 0.00 0.00 0.00 0.00 0.00
0.00 0.00 0.00 0.00 0.00 0.00 0.00 0.00 0.00 0.00 0.00 0.00 0.00 0.00 0.00 0.00 0.00 0.00 0.00 0.00 0.00 0.00 0.00 0.00 0.00 0.00 0.00 0.00 0.00 0.00 0.00 0.00
0.00 0.00 0.00 0.00 0.00 0.00 0.00 0.00 0.00 0.00 0.00 0.00 0.00 0.00 0.00 0.00 0.00 0.00 0.00 0.00 0.00 0.00 0.00 0.00 0.00 0.00 0.00 0.00 0.00 0.00 0.00 0.00
MSLP
1015.85 1016.45 1017.58 1017.87 1018.04 1018.23 1018.49 1018.43 1018.60 1018.80 1019.13 1019.06 1019.08 1019.17 1019.12 1019.24 1019.21 1019.21 1019.21 1019.21 1019.20 1019.24 1019.31 1019.21 1019.08 1019.00 1018.92 1018.74 1018.47 1018.04 1017.32 1015.74
1015.32 1015.84 1015.99 1016.48 1017.30 1018.07 1018.45 1018.43 1018.72 1018.93 1019.03 1019.07 1019.11 1019.04 1018.96 1019.08 1019.21 1019.34 1019.40 1019.44 1019.44 1019.46 1019.41 1019.24 1019.06 1018.95 1018.83 1018.62 1018.26 1017.78 1017.08 1015.95
1015.31 1015.82 1016.32 1016.72 1016.61 1017.52 1018.07 1018.41 1018.52 1018.68 1018.68 1018.79 1018.74 1018.03 1018.10 1018.25 1019.09 1019.34 1019.41 1019.49 1019.56 1019.54 1019.46 1019.28 1018.92 1018.73 1018.50 1018.19 1017.95 1016.60 1016.46 1015.84
1015.34 1015.81 1016.33 1016.60 1016.56 1016.80 1016.96 1017.34 1017.20 1017.61 1017.69 1017.91 1017.61 1018.15 1018.21 1018.50 1018.66 1018.84 1018.91 1019.03 1018.93 1018.94 1018.80 1018.58 1018.36 1017.23 1017.39 1017.78 1017.12 1016.68 1016.78 1016.02
1015.00 1016.05 1016.68 1016.65 1016.55 1016.50 1016.31 1016.65 1017.10 1017.23 1017.61 1017.94 1018.02 1018.15 1017.89 1017.92 1017.84 1017.72 1017.86 1018.38 1017.71 1018.19 1017.80 1017.49 1017.48 1017.63 1017.32 1017.24 1016.97 1016.89 1016.24 1015.97
1015.02 1015.66 1016.57 1016.81 1016.35 1016.28 1016.60 1016.75 1017.02 1017.19 1017.34 1017.95 1018.05 1017.90 1017.95 1018.00 1017.86 1017.85 1017.77 1017.59 1017.69 1017.53 1017.37 1017.25 1017.39 1017.44 1017.45 1017.38 1017.20 1016.93 1016.21 1015.95
1014.61 1015.53 1016.35 1016.62 1016.97 1016.87 1017.19 1017.33 1017.14 1017.52 1017.55 1017.81 1018.11 1018.18 1018.20 1018.11 1018.10 1018.01 1017.78 1017.58 1017.41 1017.29 1017.12 1016.92 1016.78 1016.85 1016.87 1017.01 1016.94 1016.79 1016.72 1016.42
1014.60 1015.21 1016.06 1016.49 1016.79 1017.13 1017.31 1017.36 1017.44 1017.57 1017.55 1017.83 1018.19 1018.34 1018.37 1018.31 1018.10 1017.91 1017.60 1017.34 1017.21 1017.21 1017.04 1016.92 1016.71 1016.47 1016.39 1016.46 1016.54 1016.39 1016.12 1016.07
1014.17 1015.05 1015.67 1016.52 1016.77 1017.14 1017.28 1017.24 1017.82 1017.56 1017.59 1017.96 1018.13 1018.32 1018.36 1018.47 1018.19 1017.97 1017.65 1017.42 1017.34 1017.03 1016.77 1016.55 1016.48 1016.25 1016.05 1015.83 1016.00 1016.05 1016.06 1015.91
1014.07 1015.03 1015.85 1016.46 1016.55 1016.95 1017.06 1017.19 1017.66 1017.55 1017.56 1017.76 1018.08 1018.28 1018.34 1018.29 1017.93 1017.67 1017.43 1017.39 1017.12 1016.79 1016.54 1016.25 1015.97 1015.70 1015.43 1015.39 1015.19 1014.95 1015.06 1015.22
1014.31 1015.18 1015.95 1016.30 1016.68 1016.98 1017.34 1017.62 1017.73 1017.20 1017.47 1017.43 1017.61 1018.05 1018.06 1018.16 1017.88 1017.59 1017.47 1017.23 1016.86 1016.57 1016.24 1015.99 1015.62 1015.33 1015.04 1014.68 1014.45 1014.41 1014.25 1014.16
1014.74 1015.52 1016.00 1016.70 1016.82 1017.23 1017.19 1017.33 1017.33 1017.38 1017.30 1017.39 1018.00 1018.21 1018.22 1018.23 1017.89 1017.59 1017.37 1017.08 1016.66 1016.36 1016.16 1015.97 1015.62 1015.18 1014.71 1014.10 1013.90 1013.58 1013.63 1013.74
1015.26 1016.30 1017.20 1017.04 1016.94 1017.23 1017.01 1017.15 1017.24 1017.32 1017.37 1017.82 1018.28 1018.20 1018.33 1018.07 1017.66 1017.28 1017.18 1016.84 1016.53 1016.38 1016.02 1015.59 1015.20 1014.91 1014.28 1013.70 1013.13 1013.09 1013.02 1013.01
1016.72 1017.17 1017.58 1017.56 1017.46 1017.75 1017.95 1018.03 1017.76 1017.78 1017.75 1018.04 1018.11 1018.30 1018.44 1018.15 1017.72 1017.39 1017.02 1016.65 1016.45 1016.18 1015.87 1015.27 1014.73 1014.47 1013.90 1013.34 1012.45 1011.90 1011.38 1011.43
1017.32 1017.70 1018.03 1018.33 1018.21 1017.84 1017.89 1017.81 1017.48 1017.49 1017.50 1017.96 1018.01 1018.43 1018.27 1018.00 1017.71 1017.42 1017.19 1016.92 1016.30 1015.93 1015.63 1015.21 1014.43 1014.04 1013.97 1013.41 1012.62 1011.37 1011.08 1010.56
1018.04 1018.19 1018.25 1018.56 1018.77 1018.52 1018.65 1018.30 1018.17 1018.30 1018.33 1018.14 1018.26 1018.29 1017.94 1017.73 1017.50 1017.31 1017.09 1017.12 1016.65 1016.09 1015.62 1015.32 1015.04 1014.20 1013.95 1013.43 1012.70 1012.34 1012.09 1011.40
1018.38 1018.35 1018.53 1018.80 1018.97 1019.11 1019.05 1018.70 1018.82 1018.80 1018.44 1018.35 1018.43 1017.94 1018.00 1017.67 1017.41 1017.23 1017.12 1017.00 1016.53 1016.32 1016.01 1015.87 1015.75 1015.38 1014.87 1014.34 1013.97 1013.33 1013.18 1013.30
1018.54 1018.46 1018.40 1018.81 1019.19 1019.31 1019.30 1019.20 1019.06 1018.90 1018.69 1018.64 1018.35 1018.39 1018.10 1017.76 1017.54 1017.40 1017.22 1016.79 1016.61 1016.46 1016.76 1017.01 1017.21 1017.19 1017.26 1017.07 1017.03 1016.49 1015.92 1015.48
1018.57 1018.48 1018.37 1018.44 1018.94 1019.19 1019.17 1019.27 1019.36 1019.15 1019.15 1019.05 1019.15 1018.77 1018.32 1017.84 1017.69 1017.24 1016.95 1016.83 1017.28 1017.41 1017.72 1017.75 1018.06 1018.21 1018.17 1018.23 1018.22 1018.02 1017.86 1017.43
1018.75 1018.73 1018.46 1018.33 1018.60 1019.01 1019.26 1019.44 1019.48 1019.57 1019.65 1019.85 1019.47 1019.05 1018.73 1018.07 1017.63 1017.44 1017.68 1017.76 1018.09 1018.48 1018.48 1018.66 1018.56 1018.37 1018.17 1018.21 1018.20 1017.95 1017.73 1017.73
Thickness
5681 5676 5668 5667 5664 5661 5659 5658 5655 5652 5646 5646 5645 5642 5641 5638 5636 5634 5633 5631 5630 5628 5625 5625 5624 5623 5622 5622 5623 5625 5628 5638
5686 5682 5680 5674 5668 5662 5658 5657 5653 5649 5646 5644 5641 5640 5639 5636 5632 5629 5627 5625 5624 5622 5621 5621 5621 5620 5619 5619 5620 5623 5625 5632
5685 5680 5676 5672 5671 5665 5660 5655 5652 5648 5646 5643 5641 5643 5639 5637 5630 5627 5624 5621 5618 5616 5615 5615 5617 5617 5617 5618 5619 5627 5626 5629
5686 5680 5674 5671 5669 5666 5662 5657 5656 5650 5648 5644 5644 5637 5635 5630 5629 5625 5622 5619 5617 5615 5615 5615 5615 5620 5619 5616 5617 5620 5619 5624
5687 5676 5669 5668 5666 5664 5663 5659 5653 5650 5645 5640 5636 5633 5632 5629 5627 5626 5622 5617 5617 5613 5614 5614 5612 5609 5610 5610 5611 5611 5615 5618
5683 5677 5667 5663 5664 5662 5657 5653 5649 5645 5641 5634 5631 5629 5626 5623 5621 5618 5616 5615 5612 5610 5609 5609 5606 5603 5601 5601 5602 5603 5607 5609
5684 5674 5665 5661 5655 5653 5648 5644 5642 5637 5634 5629 5625 5621 5618 5616 5613 5610 5609 5608 5606 5605 5603 5603 5603 5601 5599 5596 5595 5595 5595 5596
5680 5673 5665 5658 5653 5646 5641 5638 5635 5630 5627 5622 5617 5613 5610 5607 5606 5602 5601 5601 5599 5597 5596 5595 5596 5596 5595 5592 5590 5590 5591 5591
5680 5671 5663 5653 5648 5640 5635 5633 5625 5624 5620 5614 5610 5605 5601 5597 5595 5593 5593 5592 5590 5590 5590 5590 5589 5588 5588 5588 5586 5585 5584 5583
5678 5668 5658 5649 5644 5636 5631 5626 5619 5616 5613 5608 5602 5596 5592 5588 5588 5586 5584 5582 5582 5582 5581 5581 5582 5582 5583 5581 5580 5581 5579 5577
5669 5660 5649 5643 5636 5628 5622 5616 5611 5611 5605 5600 5595 5587 5584 5580 5578 5578 5575 5574 5573 5572 5572 5571 5570 5571 5570 5572 5574 5574 5573 5571
5660 5651 5643 5633 5627 5621 5616 5612 5607 5602 5597 5593 5585 5578 5574 5570 5568 5567 5565 5564 5564 5564 5562 5561 5559 5559 5560 5563 5563 5566 5564 5562
5650 5638 5626 5623 5620 5612 5610 5603 5598 5593 5588 5580 5572 5569 5564 5562 5561 5559 5556 5554 5552 5550 5549 5549 5549 5548 5548 5552 5556 5554 5552 5552
5631 5623 5617 5614 5610 5602 5595 5588 5585 5581 5575 5569 5563 5558 5552 5550 5547 5545 5543 5542 5539 5537 5535 5536 5538 5536 5532 5533 5537 5545 5549 5545
5620 5614 5607 5601 5596 5594 5588 5583 5579 5575 5570 5561 5554 5546 5542 5538 5534 5531 5528 5525 5525 5523 5521 5519 5522 5525 5516 5513 5514 5525 5529 5536
5608 5603 5598 5591 5583 5579 5572 5568 5562 5557 5551 5547 5541 5534 5531 5527 5522 5517 5514 5507 5506 5505 5504 5501 5497 5502 5500 5498 5500 5504 5501 5505
5597 5592 5586 5579 5571 5565 5559 5554 5547 5542 5538 5533 5526 5524 5516 5511 5506 5501 5495 5489 5488 5484 5482 5478 5472 5470 5472 5471 5470 5475 5471 5467
5586 5581 5576 5568 5560 5552 5545 5539 5533 5528 5523 5516 5511 5504 5500 5494 5488 5481 5475 5471 5466 5460 5453 5445 5439 5432 5425 5421 5417 5420 5421 5424
5577 5572 5566 5558 5549 5541 5534 5526 5519 5512 5505 5498 5490 5485 5480 5476 5468 5462 5456 5448 5435 5429 5423 5414 5408 5397 5391 5385 5381 5377 5376 5376
5564 5558 5553 5549 5540 5530 5520 5511 5503 5495 5485 5475 5470 5465 5458 5454 5448 5439 5428 5419 5406 5395 5386 5376 5369 5369 5365 5358 5352 5350 5349 5345